Regional Weather Roundup
Issued by NWS Goodland, KS

Home | Current Version | Previous Version | Graphics & Text | Print | Product List | Glossary On
Versions: 1 2 3 4 5 6 7 8 9 10 11 12 13 14 15 16 17 18 19 20 21 22 23 24 25 26 27 28 29 30 31 32 33 34 35 36 37 38 39 40 41 42 43 44 45 46 47 48 49 50
000
ASUS43 KGLD 291208
RWRGLD

GOODLAND FORECAST AREA HOURLY WEATHER ROUNDUP
NATIONAL WEATHER SERVICE GOODLAND KS
600 AM MDT FRI AUG 29 2014

...OFFICIAL OBSERVATIONS...

CITY           SKY/WX    TMP DP  RH WIND       PRES   REMARKS
GOODLAND KS    CLEAR     53  51  93 W6        29.98R
HILL CITY KS   MOCLDY    61  58  90 W5        29.90R
IMPERIAL NEB   CLEAR     57  51  80 NW7       29.94R
MCCOOK NEB     CLEAR     57  55  93 W9        29.90S
AKRON CO       CLEAR     53  48  83 W13       30.03R
BURLINGTON CO  CLEAR     52  48  86 W8        30.00S
LIMON CO       CLEAR     50  45  83 NW6       30.10R
$$

...UNOFFICIAL OBSERVATIONS...

CITY           SKY/WX    TMP DP  RH WIND       PRES   REMARKS
COLBY KS       CLEAR     57  57 100 W7        29.96R
GOVE KS          N/A     58  32  37 CALM        N/A
NORTON KS      CLEAR     59  54  82 W6        29.88
SHARON SPRINGS   N/A     54  52  94 CALM        N/A
TRIBUNE KS       N/A    N/A N/A N/A MISG        N/A
WAKEENEY KS      N/A     61  56  82 MISG        N/A
KIT CARSON CO    N/A     57  46  66 CALM        N/A
YUMA CO          N/A     54  49  85 N10         N/A
$$



USA.gov is the U.S. government's official web portal to all federal, state and local government web resources and services.